View from above orbital plane
|
View from above satellite
|
Ground track
|
The orbit data is extracted from the following two-line orbital elements,
1 15333U 84106A 21058.66209151 -.00000218 00000-0 -89275-4 0 9998
2 15333 71.0275 142.2746 0021891 305.3165 54.5910 14.14114979879312
Epoch (UTC): | 27 February 2021 15:53:24 |
Eccentricity: | 0.0021891 |
inclination: | 71.0275° |
perigee height: | 829 km |
apogee height: | 861 km |
right ascension of ascending node: | 142.2746° |
argument of perigee: | 305.3165° |
revolutions per day: | 14.14114979 |
mean anomaly at epoch: | 54.5910° |
orbit number at epoch: | 87931 |
The dashed part of the orbit path shows where the satellite is in the earth's shadow,
|
|